This demonstration page uses our WeatherBlox Daily Observations layout. Learn more.

Hourly Observations for February 12, 2018

Temp ( °F °C ) Dew Point ( °F °C ) Humidity (%) Winds ( mph kmh ) Pressure ( in mb ) Visibility ( mi km ) Precip ( " mm )
12:15 am 00:15 Clear 8 -13.4 5 -15 88 88 ESE 5 7 30.5 1033 10 16.0934 0 0
12:35 am 00:35 Clear 10 -12.5 6 -14.2 87 87 ESE 5 7 30.48 1032 10 16.0934 0 0
12:55 am 00:55 Clear 6 -14.3 3 -16 87 87 Calm 30.53 1034 10 16.0934 0 0
1:15 am 01:15 Clear 4 -15.6 1 -17.1 88 88 E 5 7 30.56 1035 10 16.0934 0 0
1:35 am 01:35 Clear 4 -15.8 1 -17.3 88 88 NE 7 11 30.56 1035 10 16.0934 0 0
1:55 am 01:55 Clear 3 -15.9 1 -17.3 89 89 NE 7 11 30.56 1035 10 16.0934 0 0
2:15 am 02:15 Clear 3 -16 1 -17.5 88 88 NE 8 13 30.59 1036 10 16.0934 0 0
2:35 am 02:35 Clear 4 -15.4 2 -16.7 90 90 NE 8 13 30.59 1036 10 16.0934 0 0
2:55 am 02:55 Clear 5 -15.2 2 -16.5 90 90 NE 8 13 30.59 1036 10 16.0934 0 0
3:15 am 03:15 Clear 7 -14 4 -15.4 89 89 ENE 8 13 30.59 1036 10 16.0934 0 0
3:35 am 03:35 Clear 8 -13.4 4 -15.3 86 86 NE 9 15 30.59 1036 10 16.0934 0 0
3:55 am 03:55 Clear 7 -13.7 4 -15.5 86 86 NE 8 13 30.59 1036 10 16.0934 0 0
4:15 am 04:15 Clear 7 -14.1 4 -15.7 88 88 NE 8 13 30.59 1036 10 16.0934 0 0
4:35 am 04:35 Clear 7 -14 4 -15.4 89 89 ENE 12 19 30.59 1036 10 16.0934 0 0
4:55 am 04:55 Clear 7 -14 4 -15.3 90 90 ENE 10 17 30.62 1037 10 16.0934 0 0
5:15 am 05:15 Clear 7 -14.1 4 -15.5 89 89 ENE 13 20 30.62 1037 10 16.0934 0 0
5:35 am 05:35 Clear 7 -14.1 4 -15.3 91 91 E 15 24 30.62 1037 10 16.0934 0 0
5:55 am 05:55 Clear 8 -13.3 6 -14.5 91 91 E 13 20 30.62 1037 10 16.0934 0 0
6:15 am 06:15 Clear 9 -12.6 7 -14 89 89 E 14 22 30.65 1038 10 16.0934 0 0
6:35 am 06:35 Clear 9 -12.9 6 -14.6 87 87 E 15 24 30.65 1038 10 16.0934 0 0
6:55 am 06:55 Clear 8 -13.1 6 -14.7 88 88 E 14 22 30.65 1038 10 16.0934 0 0
7:15 am 07:15 Clear 8 -13.5 5 -15.1 88 88 E 14 22 30.65 1038 10 16.0934 0 0
7:35 am 07:35 Sunny 8 -13.6 4 -15.3 87 87 E 13 20 30.68 1039 10 16.0934 0 0
7:55 am 07:55 Sunny 8 -13.5 5 -15.1 88 88 E 13 20 30.68 1039 10 16.0934 0 0
8:15 am 08:15 Sunny 8 -13.5 4 -15.3 86 86 E 15 24 30.68 1039 10 16.0934 0 0
8:35 am 08:35 Sunny 8 -13.5 4 -15.3 86 86 E 14 22 30.68 1039 10 16.0934 0 0
8:55 am 08:55 Sunny 8 -13.2 4 -15.3 84 84 E 14 22 30.68 1039 10 16.0934 0 0
9:15 am 09:15 Sunny 9 -12.7 5 -15.1 82 82 E 14 22 30.68 1039 10 16.0934 0 0
9:35 am 09:35 Sunny 10 -12.5 5 -15 82 82 E 15 24 30.68 1039 10 16.0934 0 0
9:55 am 09:55 Sunny 10 -12.1 6 -14.6 82 82 E 15 24 30.68 1039 10 16.0934 0 0
10:15 am 10:15 Sunny 11 -11.7 6 -14.4 81 81 E 16 26 30.68 1039 10 16.0934 0 0
10:35 am 10:35 Sunny 12 -11.1 7 -13.9 80 80 E 15 24 30.65 1038 10 16.0934 0 0
10:55 am 10:55 Sunny 13 -10.8 8 -13.5 81 81 E 23 37 30.65 1038 10 16.0934 0 0
11:15 am 11:15 Sunny 13 -10.7 8 -13.2 82 82 E 20 31 30.65 1038 10 16.0934 0 0
11:35 am 11:35 Sunny 13 -10.5 9 -13 82 82 E 16 26 30.65 1038 10 16.0934 0 0
11:55 am 11:55 Sunny 14 -10.1 9 -12.6 82 82 ESE 14 22 30.65 1038 10 16.0934 0 0
12:15 pm 12:15 Sunny 15 -9.6 10 -12.5 80 80 ESE 13 20 30.65 1038 10 16.0934 0 0
12:35 pm 12:35 Sunny 16 -9.1 11 -11.8 81 81 E 15 24 30.65 1038 10 16.0934 0 0
12:55 pm 12:55 Sunny 16 -8.9 11 -11.6 81 81 E 14 22 30.65 1038 10 16.0934 0 0
1:15 pm 13:15 Sunny 16 -8.8 11 -11.6 80 80 E 14 22 30.62 1037 10 16.0934 0 0
1:35 pm 13:35 Sunny 16 -8.7 12 -11.1 83 83 E 17 28 30.56 1035 10 16.0934 0 0
1:55 pm 13:55 Sunny 17 -8.1 13 -10.6 82 82 E 20 31 30.53 1034 10 16.0934 0 0
2:15 pm 14:15 Partly Cloudy 18 -8 13 -10.5 82 82 E 21 33 30.53 1034 10 16.0934 0 0
2:35 pm 14:35 Mostly Cloudy 18 -7.7 14 -10.1 83 83 E 20 31 30.53 1034 10 16.0934 0 0
2:55 pm 14:55 Cloudy 18 -7.7 14 -10 84 84 ESE 21 33 30.53 1034 10 16.0934 0 0
3:15 pm 15:15 Cloudy 18 -7.6 14 -9.9 84 84 E 21 33 30.53 1034 10 16.0934 0 0
3:35 pm 15:35 Cloudy 18 -7.7 14 -10 84 84 E 20 31 30.53 1034 10 16.0934 0 0
3:55 pm 15:55 Cloudy 18 -7.6 15 -9.7 85 85 E 18 30 30.53 1034 10 16.0934 0 0
4:15 pm 16:15 Cloudy 18 -7.7 14 -9.9 84 84 E 21 33 30.53 1034 10 16.0934 0 0
4:35 pm 16:35 Cloudy 18 -7.7 14 -9.8 85 85 E 21 33 30.5 1033 10 16.0934 0 0
4:55 pm 16:55 Cloudy 18 -7.7 14 -9.8 85 85 E 21 33 30.5 1033 10 16.0934 0 0
5:15 pm 17:15 Cloudy 18 -7.7 14 -9.8 85 85 E 18 30 30.5 1033 7 11.26538 0 0
5:35 pm 17:35 Cloudy 18 -8 14 -10 86 86 E 20 31 30.5 1033 10 16.0934 0 0
5:55 pm 17:55 Cloudy 17 -8.1 14 -10 86 86 E 18 30 30.5 1033 10 16.0934 0 0
6:15 pm 18:15 Cloudy 17 -8.2 14 -10 87 87 E 18 30 30.5 1033 10 16.0934 0 0
6:35 pm 18:35 Cloudy 17 -8.2 14 -10 87 87 E 17 28 30.5 1033 10 16.0934 0 0
6:55 pm 18:55 Mostly Cloudy 17 -8.5 14 -10.2 88 88 E 18 30 30.5 1033 10 16.0934 0 0
7:15 pm 19:15 Partly Cloudy 16 -8.8 13 -10.5 88 88 E 16 26 30.5 1033 10 16.0934 0 0
7:35 pm 19:35 Clear 16 -9 13 -10.5 89 89 E 17 28 30.5 1033 10 16.0934 0 0
7:55 pm 19:55 Clear 16 -9 13 -10.6 88 88 E 15 24 30.5 1033 10 16.0934 0 0
8:15 pm 20:15 Clear 16 -9 13 -10.7 88 88 E 14 22 30.53 1034 10 16.0934 0 0
8:35 pm 20:35 Clear 16 -9 13 -10.6 88 88 E 14 22 30.53 1034 10 16.0934 0 0
8:55 pm 20:55 Clear 16 -9.1 13 -10.6 89 89 E 18 30 30.53 1034 10 16.0934 0 0
9:15 pm 21:15 Clear 15 -9.2 13 -10.7 89 89 E 15 24 30.53 1034 10 16.0934 0 0
9:35 pm 21:35 Clear 15 -9.3 13 -10.7 90 90 E 16 26 30.56 1035 10 16.0934 0 0
9:55 pm 21:55 Clear 15 -9.3 13 -10.7 90 90 E 18 30 30.56 1035 10 16.0934 0 0
10:15 pm 22:15 Clear 15 -9.2 13 -10.5 90 90 ESE 16 26 30.53 1034 10 16.0934 0 0
10:35 pm 22:35 Clear 16 -9 13 -10.5 89 89 E 16 26 30.53 1034 10 16.0934 0 0
10:55 pm 22:55 Clear 16 -9 13 -10.5 89 89 E 14 22 30.53 1034 10 16.0934 0 0
11:15 pm 23:15 Clear 16 -9 13 -10.5 89 89 E 15 24 30.53 1034 10 16.0934 0 0
11:35 pm 23:35 Clear 16 -9.1 13 -10.5 90 90 ESE 15 24 30.5 1033 10 16.0934 0 0
11:55 pm 23:55 Clear 15 -9.2 13 -10.6 90 90 ESE 16 26 30.5 1033 10 16.0934 0 0

Powered by AerisWeather